| time (UTC) | temp F | wind direction | speed knots | gust knots | rain 1hr in | rain 24hr in | rain mn in | humidity % | barometer mb |
| 20260510005502 | 65 | 168 | 4.3 | 6.1 | 0.00 | 0.00 | 0.00 | 72 | 986.0 |
| 20260510005002 | 66 | 167 | 4.3 | 7.0 | 0.00 | 0.00 | 0.00 | 71 | 986.0 |
| 20260510004502 | 66 | 169 | 4.3 | 7.0 | 0.00 | 0.00 | 0.00 | 70 | 986.0 |
| 20260510004003 | 67 | 165 | 4.3 | 6.1 | 0.00 | 0.00 | 0.00 | 69 | 986.0 |
| 20260510003502 | 68 | 162 | 4.3 | 7.0 | 0.00 | 0.00 | 0.00 | 69 | 986.0 |
| 20260510003003 | 68 | 164 | 4.3 | 6.1 | 0.00 | 0.00 | 0.00 | 67 | 986.0 |
| 20260510002502 | 69 | 162 | 4.3 | 5.2 | 0.00 | 0.00 | 0.00 | 64 | 985.9 |
| 20260510002002 | 70 | 165 | 4.3 | 6.1 | 0.00 | 0.00 | 0.00 | 62 | 985.9 |
| 20260510001502 | 71 | 166 | 4.3 | 6.1 | 0.00 | 0.00 | 0.00 | 60 | 985.9 |
| 20260510001002 | 72 | 166 | 5.2 | 6.1 | 0.00 | 0.00 | 0.00 | 58 | 985.9 |
| 20260510000503 | 73 | 166 | 5.2 | 7.8 | 0.00 | 0.00 | 0.00 | 55 | 986.0 |
| 20260510000002 | 74 | 190 | 5.2 | 7.0 | 0.00 | 0.00 | 0.00 | 54 | 986.0 |
| 20260509235502 | 75 | 151 | 6.1 | 7.8 | 0.00 | 0.00 | 0.00 | 52 | 986.0 |
| 20260509235002 | 77 | 163 | 6.1 | 8.7 | 0.00 | 0.00 | 0.00 | 51 | 986.0 |
| 20260509234503 | 78 | 156 | 7.0 | 8.7 | 0.00 | 0.00 | 0.00 | 47 | 986.1 |
| 20260509234002 | 78 | 157 | 6.1 | 9.6 | 0.00 | 0.00 | 0.00 | 47 | 986.1 |
| 20260509233502 | 79 | 211 | 5.2 | 9.6 | 0.00 | 0.00 | 0.00 | 45 | 986.0 |
| 20260509233002 | 79 | 152 | 7.8 | 10.4 | 0.00 | 0.00 | 0.00 | 45 | 986.0 |
| 20260509232503 | 80 | 149 | 7.0 | 10.4 | 0.00 | 0.00 | 0.00 | 43 | 986.1 |
| 20260509232002 | 80 | 287 | 5.2 | 10.4 | 0.00 | 0.00 | 0.00 | 41 | 986.1 |
| 20260509231502 | 80 | 173 | 7.8 | 10.4 | 0.00 | 0.00 | 0.00 | 43 | 986.1 |
| 20260509231002 | 79 | 180 | 7.8 | 13.0 | 0.00 | 0.00 | 0.00 | 43 | 986.1 |
| 20260509230502 | 79 | 166 | 7.8 | 14.8 | 0.00 | 0.00 | 0.00 | 40 | 986.1 |
| 20260509230002 | 79 | 311 | 6.1 | 13.0 | 0.00 | 0.00 | 0.00 | 40 | 986.1 |
| 20260509225502 | 79 | 169 | 9.6 | 14.8 | 0.00 | 0.00 | 0.00 | 40 | 986.1 |
| 20260509225002 | 79 | 151 | 9.6 | 14.8 | 0.00 | 0.00 | 0.00 | 41 | 986.0 |
| 20260509224503 | 79 | 311 | 4.3 | 9.6 | 0.00 | 0.00 | 0.00 | 39 | 986.0 |
| 20260509224002 | 79 | 247 | 6.1 | 13.9 | 0.00 | 0.00 | 0.00 | 42 | 986.1 |
| 20260509223502 | 79 | 311 | 4.3 | 11.3 | 0.00 | 0.00 | 0.00 | 43 | 986.0 |
| 20260509223002 | 79 | 320 | 3.5 | 11.3 | 0.00 | 0.00 | 0.00 | 42 | 985.9 |
| 20260509222502 | 78 | 263 | 8.7 | 13.9 | 0.00 | 0.00 | 0.00 | 41 | 985.9 |
| 20260509222002 | 79 | 161 | 11.3 | 16.5 | 0.00 | 0.00 | 0.00 | 43 | 986.0 |
| 20260509221503 | 79 | 151 | 12.2 | 17.4 | 0.00 | 0.00 | 0.00 | 45 | 986.0 |
| 20260509221002 | 79 | 160 | 14.8 | 19.1 | 0.00 | 0.00 | 0.00 | 43 | 986.0 |
| 20260509220502 | 80 | 143 | 9.6 | 18.2 | 0.00 | 0.00 | 0.00 | 42 | 986.1 |
| 20260509220002 | 80 | 157 | 9.6 | 23.5 | 0.00 | 0.00 | 0.00 | 41 | 986.0 |
| 20260509215503 | 80 | 147 | 9.6 | 18.2 | 0.00 | 0.00 | 0.00 | 41 | 986.0 |
| 20260509215002 | 81 | 164 | 11.3 | 20.0 | 0.00 | 0.00 | 0.00 | 41 | 986.0 |
| 20260509214502 | 81 | 144 | 7.8 | 16.5 | 0.00 | 0.00 | 0.00 | 43 | 986.0 |
| 20260509214002 | 80 | 324 | 4.3 | 13.9 | 0.00 | 0.00 | 0.00 | 45 | 986.0 |
| 20260509213502 | 80 | 27 | 5.2 | 13.9 | 0.00 | 0.00 | 0.00 | 44 | 986.0 |
| 20260509213002 | 80 | 238 | 5.2 | 20.9 | 0.00 | 0.00 | 0.00 | 42 | 985.9 |
| 20260509212502 | 79 | 315 | 5.2 | 14.8 | 0.00 | 0.00 | 0.00 | 44 | 985.9 |
| 20260509212002 | 79 | 271 | 10.4 | 21.7 | 0.00 | 0.00 | 0.00 | 43 | 985.9 |
| 20260509211502 | 80 | 156 | 11.3 | 19.1 | 0.00 | 0.00 | 0.00 | 43 | 985.8 |
| 20260509211003 | 79 | 314 | 7.0 | 18.2 | 0.00 | 0.00 | 0.00 | 44 | 985.8 |
| 20260509210502 | 79 | 293 | 8.7 | 16.5 | 0.00 | 0.00 | 0.00 | 44 | 985.9 |
| 20260509210002 | 79 | 214 | 7.0 | 15.6 | 0.00 | 0.00 | 0.00 | 45 | 985.8 |
| 20260509205502 | 79 | 317 | 5.2 | 14.8 | 0.00 | 0.00 | 0.00 | 46 | 985.7 |
| 20260509205003 | 78 | 279 | 7.0 | 15.6 | 0.00 | 0.00 | 0.00 | 46 | 985.9 |
| 20260509204502 | 78 | 6 | 6.1 | 17.4 | 0.00 | 0.00 | 0.00 | 45 | 985.9 |
| 20260509204002 | 78 | 344 | 3.5 | 11.3 | 0.00 | 0.00 | 0.00 | 46 | 985.8 |
| 20260509203503 | 78 | 185 | 7.0 | 15.6 | 0.00 | 0.00 | 0.00 | 45 | 985.9 |
| 20260509203002 | 78 | 337 | 3.5 | 11.3 | 0.00 | 0.00 | 0.00 | 45 | 985.9 |
| 20260509202502 | 78 | 164 | 9.6 | 18.2 | 0.00 | 0.00 | 0.00 | 46 | 985.9 |
| 20260509202002 | 78 | 313 | 5.2 | 12.2 | 0.00 | 0.00 | 0.00 | 45 | 986.0 |
| 20260509201502 | 78 | 322 | 4.3 | 13.0 | 0.00 | 0.00 | 0.00 | 46 | 986.0 |
| 20260509201003 | 78 | 274 | 7.8 | 13.0 | 0.00 | 0.00 | 0.00 | 46 | 986.1 |
| 20260509200503 | 77 | 194 | 5.2 | 12.2 | 0.00 | 0.00 | 0.00 | 46 | 986.2 |
| 20260509200002 | 77 | 198 | 8.7 | 13.9 | 0.00 | 0.00 | 0.00 | 48 | 986.3 |
| 20260509195502 | 76 | 309 | 3.5 | 7.8 | 0.00 | 0.00 | 0.00 | 51 | 986.3 |
| 20260509195002 | 76 | 318 | 4.3 | 8.7 | 0.00 | 0.00 | 0.00 | 52 | 986.2 |
| 20260509194503 | 76 | 154 | 5.2 | 11.3 | 0.00 | 0.00 | 0.00 | 50 | 986.3 |
| 20260509194003 | 76 | 144 | 7.8 | 13.0 | 0.00 | 0.00 | 0.00 | 52 | 986.1 |
| 20260509193502 | 76 | 160 | 9.6 | 13.9 | 0.00 | 0.00 | 0.00 | 51 | 986.2 |
| 20260509193002 | 77 | 161 | 9.6 | 20.0 | 0.00 | 0.00 | 0.00 | 50 | 986.3 |
| 20260509192502 | 77 | 165 | 13.0 | 21.7 | 0.00 | 0.00 | 0.00 | 49 | 986.6 |
| 20260509192002 | 77 | 178 | 7.8 | 22.6 | 0.00 | 0.00 | 0.00 | 49 | 986.7 |
| 20260509191502 | 76 | 154 | 7.8 | 17.4 | 0.00 | 0.00 | 0.00 | 49 | 986.7 |
| 20260509191002 | 76 | 278 | 5.2 | 10.4 | 0.00 | 0.00 | 0.00 | 49 | 986.6 |
| 20260509190502 | 75 | 177 | 7.0 | 9.6 | 0.00 | 0.00 | 0.00 | 53 | 986.4 |
| 20260509190002 | 75 | 188 | 4.3 | 11.3 | 0.00 | 0.00 | 0.00 | 54 | 986.4 |
| 20260509185503 | 76 | 145 | 7.8 | 14.8 | 0.00 | 0.00 | 0.00 | 53 | 986.6 |
| 20260509185002 | 76 | 150 | 8.7 | 18.2 | 0.00 | 0.00 | 0.00 | 51 | 986.8 |
| 20260509184502 | 76 | 321 | 6.1 | 16.5 | 0.00 | 0.00 | 0.00 | 51 | 986.8 |
| 20260509184002 | 75 | 151 | 8.7 | 15.6 | 0.00 | 0.00 | 0.00 | 52 | 986.8 |
| 20260509183502 | 75 | 320 | 5.2 | 10.4 | 0.00 | 0.00 | 0.00 | 54 | 986.7 |
| 20260509183002 | 75 | 252 | 7.0 | 13.0 | 0.00 | 0.00 | 0.00 | 55 | 986.4 |
| 20260509182503 | 75 | 316 | 7.0 | 13.0 | 0.00 | 0.00 | 0.00 | 55 | 986.5 |
| 20260509182003 | 76 | 321 | 6.1 | 13.0 | 0.00 | 0.00 | 0.00 | 53 | 986.6 |
| 20260509181502 | 75 | 180 | 7.0 | 13.0 | 0.00 | 0.00 | 0.00 | 55 | 986.7 |
| 20260509181002 | 75 | 142 | 8.7 | 14.8 | 0.00 | 0.00 | 0.00 | 54 | 986.7 |
| 20260509180502 | 75 | 162 | 12.2 | 19.1 | 0.00 | 0.00 | 0.00 | 55 | 986.5 |
| 20260509180002 | 76 | 179 | 8.7 | 18.2 | 0.00 | 0.00 | 0.00 | 54 | 986.6 |
| 20260509175502 | 74 | 273 | 7.0 | 14.8 | 0.00 | 0.00 | 0.00 | 56 | 986.6 |
| 20260509175003 | 74 | 303 | 5.2 | 10.4 | 0.00 | 0.00 | 0.00 | 55 | 986.6 |
| 20260509174502 | 74 | 159 | 7.0 | 12.2 | 0.00 | 0.00 | 0.00 | 56 | 986.3 |
| 20260509174002 | 74 | 352 | 5.2 | 10.4 | 0.00 | 0.00 | 0.00 | 56 | 986.4 |
| 20260509173502 | 73 | 267 | 4.3 | 12.2 | 0.00 | 0.00 | 0.00 | 56 | 986.7 |
| 20260509173003 | 73 | 162 | 7.0 | 12.2 | 0.00 | 0.00 | 0.00 | 59 | 986.5 |
| 20260509172502 | 73 | 167 | 6.1 | 12.2 | 0.00 | 0.00 | 0.00 | 59 | 986.3 |
| 20260509172002 | 73 | 163 | 7.8 | 13.9 | 0.00 | 0.00 | 0.00 | 60 | 986.3 |
| 20260509171502 | 73 | 180 | 6.1 | 11.3 | 0.00 | 0.00 | 0.00 | 58 | 986.6 |
| 20260509171003 | 73 | 150 | 7.8 | 16.5 | 0.00 | 0.00 | 0.00 | 58 | 986.7 |
| 20260509170502 | 73 | 220 | 5.2 | 9.6 | 0.00 | 0.00 | 0.00 | 60 | 986.7 |
| 20260509170002 | 72 | 189 | 5.2 | 10.4 | 0.00 | 0.00 | 0.00 | 60 | 986.5 |
| 20260509165502 | 72 | 152 | 4.3 | 7.0 | 0.00 | 0.00 | 0.00 | 60 | 986.3 |
| 20260509165002 | 72 | 184 | 5.2 | 9.6 | 0.00 | 0.00 | 0.00 | 60 | 986.3 |
| 20260509164503 | 72 | 204 | 6.1 | 10.4 | 0.00 | 0.00 | 0.00 | 59 | 986.7 |
| 20260509164003 | 72 | 233 | 6.1 | 14.8 | 0.00 | 0.00 | 0.00 | 60 | 986.7 |
| 20260509163502 | 72 | 327 | 2.6 | 6.1 | 0.00 | 0.00 | 0.00 | 59 | 986.7 |
| 20260509163002 | 72 | 10 | 3.5 | 10.4 | 0.00 | 0.00 | 0.00 | 60 | 986.7 |
| 20260509162503 | 72 | 140 | 7.8 | 14.8 | 0.00 | 0.00 | 0.00 | 62 | 986.7 |
| 20260509162003 | 72 | 161 | 7.8 | 13.9 | 0.00 | 0.00 | 0.00 | 62 | 986.6 |
| 20260509161502 | 72 | 160 | 6.1 | 15.6 | 0.00 | 0.00 | 0.00 | 62 | 986.6 |
| 20260509161002 | 71 | 195 | 4.3 | 9.6 | 0.00 | 0.00 | 0.00 | 61 | 986.7 |
| 20260509160503 | 71 | 181 | 6.1 | 11.3 | 0.00 | 0.00 | 0.00 | 62 | 986.7 |
| 20260509160002 | 71 | 164 | 7.8 | 13.0 | 0.00 | 0.00 | 0.00 | 63 | 986.7 |
| 20260509155502 | 70 | 180 | 7.0 | 15.6 | 0.00 | 0.00 | 0.00 | 65 | 986.7 |
| 20260509155002 | 70 | 161 | 7.8 | 15.6 | 0.00 | 0.00 | 0.00 | 65 | 986.6 |
| 20260509154502 | 69 | 164 | 7.8 | 19.1 | 0.00 | 0.00 | 0.00 | 66 | 986.6 |
| 20260509154003 | 70 | 172 | 10.4 | 18.2 | 0.00 | 0.00 | 0.00 | 67 | 986.5 |
| 20260509153502 | 70 | 161 | 7.0 | 14.8 | 0.00 | 0.00 | 0.00 | 67 | 986.5 |
| 20260509153002 | 69 | 200 | 5.2 | 10.4 | 0.00 | 0.00 | 0.00 | 67 | 986.5 |
| 20260509152502 | 69 | 166 | 7.8 | 11.3 | 0.00 | 0.00 | 0.00 | 68 | 986.5 |
| 20260509152002 | 68 | 145 | 4.3 | 9.6 | 0.00 | 0.00 | 0.00 | 69 | 986.4 |
| 20260509151503 | 68 | 132 | 5.2 | 13.0 | 0.00 | 0.00 | 0.00 | 70 | 986.4 |
| 20260509151002 | 68 | 175 | 7.8 | 15.6 | 0.00 | 0.00 | 0.00 | 70 | 986.4 |
| 20260509150502 | 68 | 167 | 7.8 | 11.3 | 0.00 | 0.00 | 0.00 | 70 | 986.3 |
| 20260509150002 | 68 | 170 | 6.1 | 11.3 | 0.00 | 0.00 | 0.00 | 70 | 986.3 |
| 20260509145503 | 67 | 224 | 4.3 | 11.3 | 0.00 | 0.00 | 0.00 | 72 | 986.4 |
| 20260509145002 | 67 | 164 | 7.0 | 11.3 | 0.00 | 0.00 | 0.00 | 74 | 986.4 |
| 20260509144502 | 67 | 169 | 7.8 | 16.5 | 0.00 | 0.00 | 0.00 | 73 | 986.4 |
| 20260509144002 | 67 | 183 | 6.1 | 12.2 | 0.00 | 0.00 | 0.00 | 73 | 986.3 |
| 20260509143503 | 67 | 303 | 2.6 | 7.8 | 0.00 | 0.00 | 0.00 | 73 | 986.4 |
| 20260509143003 | 66 | 233 | 3.5 | 6.1 | 0.00 | 0.00 | 0.00 | 74 | 986.4 |
| 20260509142502 | 66 | 149 | 3.5 | 8.7 | 0.00 | 0.00 | 0.00 | 75 | 986.3 |
| 20260509142002 | 65 | 339 | 3.5 | 10.4 | 0.00 | 0.00 | 0.00 | 76 | 986.2 |
| 20260509141503 | 65 | 310 | 3.5 | 7.8 | 0.00 | 0.00 | 0.00 | 76 | 986.1 |
| 20260509141002 | 64 | 274 | 2.6 | 8.7 | 0.00 | 0.00 | 0.00 | 78 | 985.9 |
| 20260509140502 | 64 | 166 | 5.2 | 9.6 | 0.00 | 0.03 | 0.00 | 78 | 985.7 |
| 20260509140002 | 64 | 296 | 5.2 | 12.2 | 0.00 | 0.08 | 0.00 | 78 | 985.6 |
| 20260509135502 | 63 | 184 | 3.5 | 7.0 | 0.00 | 0.08 | 0.00 | 80 | 985.8 |
| 20260509135002 | 63 | 207 | 3.5 | 7.0 | 0.00 | 0.08 | 0.00 | 80 | 985.9 |
| 20260509134503 | 62 | 210 | 3.5 | 7.0 | 0.00 | 0.08 | 0.00 | 81 | 986.1 |
| 20260509134003 | 62 | 258 | 3.5 | 11.3 | 0.00 | 0.08 | 0.00 | 82 | 986.2 |
| 20260509133502 | 61 | 182 | 2.6 | 6.1 | 0.00 | 0.08 | 0.00 | 83 | 986.1 |
| 20260509133003 | 61 | 257 | 3.5 | 8.7 | 0.00 | 0.08 | 0.00 | 83 | 986.1 |
| 20260509132502 | 60 | 284 | 2.6 | 6.1 | 0.00 | 0.08 | 0.00 | 85 | 986.1 |
| 20260509132002 | 59 | 249 | 2.6 | 7.8 | 0.00 | 0.08 | 0.00 | 85 | 986.0 |
| 20260509131502 | 59 | 200 | 3.5 | 10.4 | 0.00 | 0.08 | 0.00 | 86 | 986.0 |
| 20260509131002 | 59 | 174 | 3.5 | 12.2 | 0.00 | 0.08 | 0.00 | 87 | 986.0 |
| 20260509130502 | 58 | 308 | 4.3 | 9.6 | 0.00 | 0.08 | 0.00 | 87 | 985.9 |
| 20260509130003 | 58 | 209 | 4.3 | 12.2 | 0.00 | 0.08 | 0.00 | 88 | 985.9 |
| 20260509125502 | 58 | 174 | 6.1 | 13.9 | 0.00 | 0.08 | 0.00 | 88 | 985.9 |
| 20260509125002 | 57 | 205 | 2.6 | 7.0 | 0.00 | 0.08 | 0.00 | 89 | 985.9 |
| 20260509124502 | 57 | 324 | 4.3 | 10.4 | 0.00 | 0.08 | 0.00 | 89 | 986.0 |
| 20260509124002 | 57 | 314 | 6.1 | 11.3 | 0.00 | 0.08 | 0.00 | 89 | 986.1 |
| 20260509123502 | 57 | 337 | 4.3 | 11.3 | 0.00 | 0.08 | 0.00 | 89 | 986.2 |
| 20260509123002 | 57 | 322 | 5.2 | 13.9 | 0.00 | 0.08 | 0.00 | 89 | 986.3 |
| 20260509122502 | 57 | 274 | 4.3 | 10.4 | 0.00 | 0.08 | 0.00 | 89 | 986.2 |
| 20260509122003 | 57 | 338 | 4.3 | 8.7 | 0.00 | 0.08 | 0.00 | 89 | 986.1 |
| 20260509121502 | 57 | 268 | 3.5 | 7.8 | 0.00 | 0.08 | 0.00 | 89 | 985.9 |
| 20260509121002 | 56 | 169 | 3.5 | 8.7 | 0.00 | 0.08 | 0.00 | 89 | 985.8 |
| 20260509120502 | 56 | 334 | 2.6 | 5.2 | 0.00 | 0.08 | 0.00 | 90 | 985.6 |
| 20260509120002 | 56 | 310 | 2.6 | 7.0 | 0.00 | 0.08 | 0.00 | 90 | 985.5 |
| 20260509115503 | 55 | 198 | 2.6 | 7.0 | 0.00 | 0.08 | 0.00 | 91 | 985.4 |
| 20260509115002 | 55 | 207 | 2.6 | 5.2 | 0.00 | 0.08 | 0.00 | 91 | 985.2 |
| 20260509114503 | 55 | 316 | 2.6 | 7.8 | 0.00 | 0.08 | 0.00 | 91 | 985.1 |
| 20260509114002 | 55 | 272 | 2.6 | 7.8 | 0.00 | 0.08 | 0.00 | 91 | 985.0 |
| 20260509113502 | 55 | 302 | 2.6 | 7.0 | 0.00 | 0.08 | 0.00 | 91 | 985.0 |
| 20260509113003 | 55 | 283 | 1.7 | 4.3 | 0.00 | 0.08 | 0.00 | 91 | 985.0 |
| 20260509112503 | 54 | 297 | 2.6 | 7.8 | 0.00 | 0.08 | 0.00 | 91 | 984.9 |
| 20260509112002 | 54 | 326 | 1.7 | 8.7 | 0.00 | 0.08 | 0.00 | 91 | 985.0 |
| 20260509111502 | 54 | 293 | 2.6 | 7.0 | 0.00 | 0.08 | 0.00 | 91 | 984.9 |
| 20260509111002 | 54 | 311 | 1.7 | 4.3 | 0.00 | 0.08 | 0.00 | 91 | 984.8 |
| 20260509110502 | 54 | 194 | 0.9 | 3.5 | 0.00 | 0.08 | 0.00 | 91 | 984.7 |
| 20260509110002 | 54 | 296 | 1.7 | 5.2 | 0.00 | 0.08 | 0.00 | 91 | 984.7 |
| 20260509105503 | 54 | 277 | 1.7 | 4.3 | 0.00 | 0.08 | 0.00 | 91 | 984.8 |
| 20260509105002 | 54 | 255 | 1.7 | 4.3 | 0.00 | 0.08 | 0.00 | 91 | 984.8 |
| 20260509104502 | 54 | 254 | 1.7 | 4.3 | 0.00 | 0.08 | 0.00 | 91 | 984.9 |
| 20260509104002 | 54 | 301 | 1.7 | 3.5 | 0.00 | 0.08 | 0.00 | 91 | 984.7 |
| 20260509103502 | 54 | 231 | 1.7 | 4.3 | 0.00 | 0.08 | 0.00 | 91 | 984.7 |
| 20260509103002 | 53 | 242 | 1.7 | 3.5 | 0.00 | 0.08 | 0.00 | 91 | 984.8 |
| 20260509102503 | 53 | 296 | 1.7 | 3.5 | 0.00 | 0.08 | 0.00 | 91 | 984.7 |
| 20260509102002 | 53 | 265 | 1.7 | 3.5 | 0.00 | 0.08 | 0.00 | 91 | 984.7 |
| 20260509101502 | 54 | 290 | 1.7 | 3.5 | 0.00 | 0.08 | 0.00 | 91 | 984.7 |
| 20260509101002 | 54 | 260 | 1.7 | 3.5 | 0.00 | 0.08 | 0.00 | 90 | 984.8 |
| 20260509100502 | 54 | 297 | 0.9 | 3.5 | 0.00 | 0.08 | 0.00 | 90 | 984.7 |
| 20260509100002 | 54 | 247 | 0.9 | 3.5 | 0.00 | 0.08 | 0.00 | 90 | 984.8 |
| 20260509095502 | 54 | 203 | 0.9 | 2.6 | 0.00 | 0.08 | 0.00 | 89 | 984.9 |
| 20260509095003 | 54 | 251 | 0.9 | 2.6 | 0.00 | 0.08 | 0.00 | 89 | 985.0 |
| 20260509094502 | 55 | 281 | 0.9 | 1.7 | 0.00 | 0.08 | 0.00 | 88 | 985.0 |
| 20260509094002 | 55 | 236 | 0.9 | 2.6 | 0.00 | 0.08 | 0.00 | 88 | 985.0 |
| 20260509093502 | 55 | 284 | 1.7 | 2.6 | 0.00 | 0.08 | 0.00 | 87 | 985.1 |
| 20260509093002 | 55 | 296 | 0.9 | 2.6 | 0.00 | 0.08 | 0.00 | 87 | 985.2 |
| 20260509092503 | 55 | 283 | 2.6 | 6.1 | 0.00 | 0.08 | 0.00 | 87 | 985.2 |
| 20260509092002 | 55 | 328 | 1.7 | 4.3 | 0.00 | 0.08 | 0.00 | 87 | 985.1 |
| 20260509091502 | 55 | 288 | 0.9 | 3.5 | 0.00 | 0.08 | 0.00 | 86 | 985.1 |
| 20260509091002 | 56 | 232 | 0.9 | 2.6 | 0.00 | 0.08 | 0.00 | 86 | 985.2 |
| 20260509090503 | 56 | 179 | 0.9 | 3.5 | 0.00 | 0.08 | 0.00 | 85 | 985.2 |
| 20260509090002 | 56 | 265 | 0.9 | 2.6 | 0.00 | 0.08 | 0.00 | 85 | 985.2 |
| 20260509085502 | 56 | 205 | 0.9 | 4.3 | 0.00 | 0.08 | 0.00 | 84 | 985.3 |
| 20260509085002 | 56 | 187 | 2.6 | 6.1 | 0.00 | 0.08 | 0.00 | 84 | 985.3 |
| 20260509084502 | 56 | 229 | 1.7 | 5.2 | 0.00 | 0.08 | 0.00 | 84 | 985.1 |
| 20260509084003 | 56 | 197 | 2.6 | 5.2 | 0.00 | 0.08 | 0.00 | 84 | 985.1 |
| 20260509083502 | 56 | 232 | 1.7 | 4.3 | 0.00 | 0.08 | 0.00 | 84 | 985.0 |
| 20260509083002 | 56 | 344 | 2.6 | 6.1 | 0.00 | 0.08 | 0.00 | 84 | 985.1 |
| 20260509082502 | 56 | 327 | 2.6 | 6.1 | 0.00 | 0.08 | 0.00 | 84 | 985.0 |
| 20260509082002 | 56 | 358 | 2.6 | 8.7 | 0.00 | 0.08 | 0.00 | 84 | 985.1 |
| 20260509081502 | 56 | 267 | 1.7 | 3.5 | 0.00 | 0.08 | 0.00 | 84 | 985.2 |
| 20260509081002 | 56 | 296 | 1.7 | 3.5 | 0.00 | 0.08 | 0.00 | 84 | 985.2 |
| 20260509080503 | 56 | 210 | 1.7 | 7.8 | 0.00 | 0.08 | 0.00 | 84 | 985.1 |
| 20260509080002 | 56 | 155 | 1.7 | 5.2 | 0.00 | 0.08 | 0.00 | 84 | 985.0 |
| 20260509075502 | 56 | 249 | 0.9 | 2.6 | 0.00 | 0.08 | 0.00 | 84 | 985.0 |
| 20260509075002 | 56 | 248 | 1.7 | 5.2 | 0.00 | 0.08 | 0.00 | 85 | 985.1 |
| 20260509074502 | 56 | 237 | 0.9 | 2.6 | 0.00 | 0.08 | 0.00 | 85 | 985.1 |
| 20260509074003 | 56 | 179 | 0.9 | 4.3 | 0.00 | 0.08 | 0.00 | 85 | 985.0 |
| 20260509073502 | 55 | 205 | 1.7 | 4.3 | 0.00 | 0.08 | 0.00 | 84 | 984.9 |
| 20260509073002 | 55 | 196 | 1.7 | 4.3 | 0.00 | 0.08 | 0.00 | 84 | 984.8 |
| 20260509072502 | 54 | 279 | 1.7 | 5.2 | 0.00 | 0.08 | 0.00 | 86 | 984.8 |
| 20260509072002 | 54 | 253 | 0.9 | 3.5 | 0.00 | 0.08 | 0.00 | 87 | 985.0 |
| 20260509071503 | 54 | 202 | 1.7 | 5.2 | 0.00 | 0.08 | 0.00 | 88 | 985.2 |
| 20260509071002 | 53 | 165 | 2.6 | 5.2 | 0.00 | 0.08 | 0.00 | 88 | 985.2 |
| 20260509070502 | 53 | 172 | 2.6 | 4.3 | 0.00 | 0.08 | 0.00 | 88 | 985.3 |
| 20260509070003 | 53 | 167 | 2.6 | 6.1 | 0.00 | 0.08 | 0.00 | 89 | 985.3 |
| 20260509065502 | 53 | 181 | 2.6 | 4.3 | 0.00 | 0.08 | 0.00 | 89 | 985.2 |
| 20260509065002 | 53 | 169 | 2.6 | 5.2 | 0.00 | 0.08 | 0.00 | 88 | 985.3 |
| 20260509064502 | 54 | 203 | 1.7 | 6.1 | 0.00 | 0.08 | 0.00 | 87 | 985.3 |
| 20260509064002 | 54 | 202 | 1.7 | 4.3 | 0.00 | 0.08 | 0.00 | 87 | 985.5 |
| 20260509063503 | 54 | 155 | 3.5 | 6.1 | 0.00 | 0.08 | 0.00 | 86 | 985.5 |
| 20260509063002 | 55 | 197 | 1.7 | 5.2 | 0.00 | 0.08 | 0.00 | 85 | 985.4 |
| 20260509062502 | 55 | 159 | 2.6 | 5.2 | 0.00 | 0.08 | 0.00 | 85 | 985.6 |
| 20260509062003 | 55 | 160 | 2.6 | 4.3 | 0.00 | 0.08 | 0.00 | 84 | 985.6 |
| 20260509061502 | 56 | 161 | 1.7 | 5.2 | 0.00 | 0.08 | 0.00 | 83 | 985.7 |
| 20260509061002 | 57 | 189 | 2.6 | 4.3 | 0.00 | 0.08 | 0.00 | 82 | 985.7 |
| 20260509060502 | 57 | 171 | 2.6 | 4.3 | 0.00 | 0.08 | 0.00 | 80 | 985.7 |
| 20260509060002 | 58 | 167 | 3.5 | 8.7 | 0.00 | 0.08 | 0.00 | 79 | 985.5 |
| 20260509055503 | 58 | 189 | 2.6 | 4.3 | 0.00 | 0.08 | 0.00 | 78 | 985.5 |
| 20260509055002 | 58 | 207 | 1.7 | 5.2 | 0.00 | 0.08 | 0.00 | 76 | 985.6 |
| 20260509054502 | 59 | 334 | 2.6 | 7.8 | 0.00 | 0.08 | 0.00 | 76 | 985.6 |
| 20260509054002 | 59 | 316 | 4.3 | 9.6 | 0.00 | 0.08 | 0.00 | 76 | 985.6 |
| 20260509053503 | 59 | 298 | 2.6 | 7.8 | 0.00 | 0.08 | 0.00 | 75 | 985.7 |
| 20260509053003 | 59 | 235 | 3.5 | 6.1 | 0.00 | 0.08 | 0.00 | 75 | 985.6 |
| 20260509052502 | 59 | 330 | 2.6 | 8.7 | 0.00 | 0.08 | 0.00 | 74 | 985.6 |
| 20260509052002 | 59 | 197 | 3.5 | 7.8 | 0.00 | 0.08 | 0.00 | 74 | 985.6 |
| 20260509051502 | 60 | 202 | 3.5 | 7.8 | 0.00 | 0.08 | 0.00 | 73 | 985.7 |
| 20260509051002 | 60 | 220 | 3.5 | 9.6 | 0.00 | 0.08 | 0.00 | 73 | 985.7 |
| 20260509050502 | 60 | 111 | 3.5 | 7.8 | 0.00 | 0.08 | 0.00 | 72 | 985.5 |
| 20260509050002 | 60 | 145 | 2.6 | 7.8 | 0.00 | 0.08 | 0.00 | 72 | 985.4 |
| 20260509045502 | 60 | 278 | 2.6 | 10.4 | 0.00 | 0.08 | 0.00 | 72 | 985.4 |
| 20260509045003 | 60 | 22 | 3.5 | 9.6 | 0.00 | 0.08 | 0.00 | 71 | 985.4 |
| 20260509044502 | 60 | 288 | 2.6 | 6.1 | 0.00 | 0.08 | 0.00 | 71 | 985.4 |
| 20260509044002 | 60 | 257 | 2.6 | 6.1 | 0.00 | 0.08 | 0.00 | 70 | 985.4 |
| 20260509043503 | 61 | 312 | 3.5 | 7.0 | 0.00 | 0.08 | 0.00 | 69 | 985.4 |
| 20260509043003 | 61 | 302 | 2.6 | 7.0 | 0.00 | 0.08 | 0.00 | 68 | 985.5 |
| 20260509042502 | 61 | 336 | 3.5 | 7.8 | 0.00 | 0.08 | 0.00 | 68 | 985.5 |
| 20260509042002 | 61 | 223 | 2.6 | 8.7 | 0.00 | 0.08 | 0.00 | 68 | 985.5 |
| 20260509041502 | 61 | 344 | 2.6 | 7.8 | 0.00 | 0.08 | 0.00 | 68 | 985.5 |
| 20260509041002 | 61 | 292 | 1.7 | 4.3 | 0.00 | 0.08 | 0.00 | 67 | 985.6 |
| 20260509040502 | 61 | 1 | 3.5 | 10.4 | 0.00 | 0.08 | 0.00 | 66 | 985.7 |
| 20260509040003 | 61 | 222 | 2.6 | 8.7 | 0.00 | 0.08 | 0.00 | 67 | 985.7 |
| 20260509035502 | 61 | 272 | 4.3 | 13.9 | 0.00 | 0.08 | 0.00 | 66 | 985.7 |
| 20260509035002 | 61 | 323 | 3.5 | 7.8 | 0.00 | 0.08 | 0.00 | 66 | 985.6 |
| 20260509034502 | 61 | 358 | 3.5 | 11.3 | 0.00 | 0.08 | 0.00 | 66 | 985.6 |
| 20260509034002 | 61 | 299 | 3.5 | 10.4 | 0.00 | 0.08 | 0.00 | 66 | 985.7 |
| 20260509033502 | 61 | 336 | 3.5 | 9.6 | 0.00 | 0.08 | 0.00 | 65 | 985.7 |
| 20260509033003 | 61 | 19 | 3.5 | 7.0 | 0.00 | 0.08 | 0.00 | 65 | 985.7 |
| 20260509032502 | 61 | 230 | 2.6 | 7.8 | 0.00 | 0.08 | 0.00 | 65 | 985.7 |
| 20260509032002 | 61 | 304 | 3.5 | 8.7 | 0.00 | 0.08 | 0.00 | 65 | 985.8 |
| 20260509031502 | 60 | 16 | 3.5 | 14.8 | 0.00 | 0.08 | 0.00 | 66 | 985.8 |
| 20260509031002 | 60 | 310 | 2.6 | 8.7 | 0.00 | 0.08 | 0.00 | 66 | 985.8 |
| 20260509030502 | 60 | 294 | 3.5 | 11.3 | 0.00 | 0.08 | 0.00 | 68 | 985.7 |
| 20260509030003 | 59 | 195 | 2.6 | 7.0 | 0.00 | 0.08 | 0.00 | 67 | 985.7 |
| 20260509025502 | 59 | 175 | 3.5 | 7.0 | 0.00 | 0.08 | 0.00 | 69 | 985.6 |
| 20260509025002 | 59 | 195 | 3.5 | 7.0 | 0.00 | 0.08 | 0.00 | 69 | 985.6 |
| 20260509024502 | 59 | 164 | 2.6 | 7.0 | 0.00 | 0.08 | 0.00 | 69 | 985.6 |
| 20260509024002 | 60 | 198 | 3.5 | 7.8 | 0.00 | 0.08 | 0.00 | 69 | 985.6 |
| 20260509023502 | 60 | 181 | 3.5 | 6.1 | 0.00 | 0.08 | 0.00 | 69 | 985.5 |
| 20260509023003 | 60 | 144 | 2.6 | 9.6 | 0.00 | 0.08 | 0.00 | 68 | 985.5 |
| 20260509022502 | 60 | 182 | 2.6 | 6.1 | 0.00 | 0.08 | 0.00 | 67 | 985.5 |
| 20260509022002 | 60 | 112 | 2.6 | 5.2 | 0.00 | 0.08 | 0.00 | 66 | 985.6 |
| 20260509021502 | 60 | 249 | 2.6 | 7.8 | 0.00 | 0.08 | 0.00 | 67 | 985.6 |
| 20260509021002 | 60 | 334 | 2.6 | 5.2 | 0.00 | 0.08 | 0.00 | 67 | 985.6 |
| 20260509020502 | 59 | 180 | 3.5 | 7.8 | 0.00 | 0.08 | 0.00 | 69 | 985.6 |
| 20260509020002 | 59 | 220 | 2.6 | 7.0 | 0.00 | 0.08 | 0.00 | 70 | 985.5 |
| 20260509015503 | 58 | 189 | 2.6 | 7.8 | 0.00 | 0.08 | 0.00 | 72 | 985.4 |
| 20260509015002 | 58 | 187 | 2.6 | 6.1 | 0.00 | 0.08 | 0.00 | 73 | 985.4 |
| 20260509014502 | 58 | 176 | 3.5 | 7.0 | 0.00 | 0.08 | 0.00 | 72 | 985.4 |
| 20260509014002 | 58 | 179 | 3.5 | 5.2 | 0.00 | 0.08 | 0.00 | 73 | 985.3 |
| 20260509013502 | 58 | 179 | 3.5 | 6.1 | 0.00 | 0.08 | 0.00 | 72 | 985.3 |
| 20260509013002 | 59 | 177 | 2.6 | 4.3 | 0.00 | 0.08 | 0.00 | 72 | 985.3 |
| 20260509012502 | 59 | 177 | 2.6 | 5.2 | 0.00 | 0.08 | 0.00 | 71 | 985.3 |
| 20260509012002 | 59 | 176 | 3.5 | 6.1 | 0.00 | 0.08 | 0.00 | 70 | 985.3 |
| 20260509011503 | 60 | 181 | 4.3 | 6.1 | 0.00 | 0.08 | 0.00 | 69 | 985.3 |
| 20260509011002 | 60 | 162 | 4.3 | 6.1 | 0.00 | 0.08 | 0.00 | 68 | 985.3 |
| 20260509010502 | 61 | 167 | 3.5 | 5.2 | 0.00 | 0.08 | 0.00 | 67 | 985.3 |
| 20260509010002 | 62 | 168 | 3.5 | 5.2 | 0.00 | 0.08 | 0.00 | 66 | 985.3 |